Andalusia, AL

11:05 PM CDT on April 28, 2017 (GMT -0500)
Andalusia

Weather History for K79J - May, 2013

Change the Weather History Date:

Sunday, May 26, 2013

  Actual Average (KCEW) Record (KCEW)
Temperature  
Mean Temperature 74 °F -  
Max Temperature 89 °F 87 °F 99 °F (2012)
Min Temperature 59 °F 61 °F 40 °F (1979)
Cooling Degree Days 9    
Growing Degree Days 24 (Base 50)    
Moisture  
Dew Point 57 °F    
Average Humidity 57    
Maximum Humidity 87    
Minimum Humidity 26    
Precipitation  
Precipitation 0.00 in - - ()
Sea Level Pressure  
Sea Level Pressure 30.17 in    
Wind  
Wind Speed 2 mph (SSW)    
Max Wind Speed 8 mph    
Max Gust Speed -    
Visibility 10 miles    
Events      
Averages and records for this station are not official NWS values.
T = Trace of Precipitation, MM = Missing Value Source: NWS Daily Summary

Daily Weather History Graph

Daily Weather History Graph

Search for Another Location

Airport or City:

Trip Planner

Search our weather history database for the weather conditions in past years. The results will help you decide how hot, cold, wet, or windy it might be!

Date:

Astronomy

May. 26, 2013 Rise Set
Actual Time 5:43 AM CDT 7:41 PM CDT
Civil Twilight 5:16 AM CDT 8:09 PM CDT
Nautical Twilight 4:43 AM CDT 8:42 PM CDT
Astronomical Twilight 4:08 AM CDT 9:17 PM CDT
Moon 9:30 PM CDT (5/26) 7:11 AM CDT (5/26)
Length of Visible Light 14h 52m
Length of Day
13h 58m
Waning Gibbous, 96% of the Moon is Illuminated
May 26
Waning Gibbous
May 31
Last Quarter
Jun 8
New
Jun 16
First Quarter
Jun 23
Full

Hourly Weather History & Observations

Time (CDT) Temp. Heat Index Dew Point Humidity Pressure Visibility Wind Dir Wind Speed Gust Speed Precip Events Conditions
12:56 AM 62.1 °F - 55.9 °F 80% 30.16 in 10.0 mi Calm Calm - N/A   Clear
1:56 AM 60.1 °F - 55.9 °F 86% 30.15 in 10.0 mi SSE 3.5 mph - N/A   Clear
2:56 AM 61.0 °F - 55.9 °F 83% 30.14 in 10.0 mi Calm Calm - N/A   Clear
3:56 AM 61.0 °F - 54.0 °F 78% 30.15 in 10.0 mi Calm Calm - N/A   Clear
4:56 AM 61.0 °F - 55.0 °F 81% 30.17 in 10.0 mi Calm Calm - N/A   Clear
5:56 AM 59.0 °F - 55.0 °F 87% 30.19 in 10.0 mi Calm Calm - N/A   Clear
6:56 AM 63.0 °F - 55.9 °F 78% 30.20 in 10.0 mi Calm Calm - N/A   Clear
7:56 AM 70.0 °F - 57.9 °F 65% 30.21 in 10.0 mi Calm Calm - N/A   Clear
8:56 AM 78.1 °F - 60.1 °F 54% 30.22 in 10.0 mi Calm Calm - N/A   Clear
9:56 AM 82.0 °F 81.4 °F 55.0 °F 39% 30.23 in 10.0 mi SE 8.1 mph - N/A   Clear
10:56 AM 82.9 °F 81.9 °F 54.0 °F 37% 30.23 in 10.0 mi SE 6.9 mph - N/A   Clear
11:56 AM 84.9 °F 83.2 °F 53.1 °F 33% 30.21 in 10.0 mi Variable 4.6 mph - N/A   Clear
12:56 PM 87.1 °F 84.9 °F 53.1 °F 31% 30.19 in 10.0 mi SSW 6.9 mph - N/A   Clear
1:56 PM 88.0 °F - 52.0 °F 29% 30.17 in 10.0 mi SE 6.9 mph - N/A   Clear
2:56 PM 89.1 °F - 50.0 °F 26% 30.15 in 10.0 mi Variable 3.5 mph - N/A   Clear
3:56 PM 89.1 °F - 52.0 °F 28% 30.14 in 10.0 mi West 3.5 mph - N/A   Clear
4:56 PM 89.1 °F 86.9 °F 54.0 °F 30% 30.12 in 10.0 mi Calm Calm - N/A   Scattered Clouds
5:56 PM 87.1 °F 85.3 °F 55.0 °F 33% 30.12 in 10.0 mi Variable 3.5 mph - N/A   Clear
6:56 PM 82.9 °F 83.7 °F 62.1 °F 49% 30.12 in 10.0 mi SW 3.5 mph - N/A   Partly Cloudy
7:56 PM 80.1 °F 81.5 °F 63.0 °F 56% 30.13 in 10.0 mi Calm Calm - N/A   Clear
8:56 PM 78.1 °F - 63.0 °F 60% 30.13 in 10.0 mi WSW 3.5 mph - N/A   Clear
9:56 PM 75.9 °F - 63.0 °F 64% 30.15 in 10.0 mi West 3.5 mph - N/A   Clear
10:56 PM 72.0 °F - 63.0 °F 73% 30.16 in 10.0 mi Calm Calm - N/A   Clear
11:56 PM 70.0 °F - 63.0 °F 78% 30.15 in 10.0 mi Calm Calm - N/A   Clear